AMC-15

Last updated on Mon Oct 14 2024 00:02:37 GMT+0000 (Coordinated Universal Time)

1 28446U 04041A 24287.52870667 -.00000090 00000+0 00000+0 0 9995 2 28446 0.0586 64.9812 0002377 123.7842 279.1151 1.00272069 73183
UTC large
Height (km)
Speed (km/s)
/
Latitude / Longitude
Inclination (degrees)
Orbital Period (minutes)
Azimuth
Elevation
Range (km)
Doppler Factor

Next 0 passes for location: London (51.5072 / 0.1276)

Sorry there are no passes over London.